Time,TemperatureF,DewpointF,PressureIn,WindDirection,WindDirectionDegrees,WindSpeedMPH,WindSpeedGustMPH,Humidity,HourlyPrecipIn,Conditions,Clouds,dailyrainin,SoftwareType,DateUTC
2013-02-21 00:00:00,18.9,13.8,30.24,WSW,254,3.0,9.0,80,0.00,,---,0.00,VWS V13.01,2013-02-21 05:00:00,
2013-02-21 00:05:00,18.9,13.5,30.24,SW,225,6.0,8.0,79,0.00,,---,0.00,VWS V13.01,2013-02-21 05:05:00,
2013-02-21 00:10:00,18.9,13.8,30.24,West,261,3.0,8.0,80,0.00,,---,0.00,VWS V13.01,2013-02-21 05:10:00,
2013-02-21 00:15:00,18.9,13.8,30.24,WSW,250,3.0,8.0,80,0.00,,---,0.00,VWS V13.01,2013-02-21 05:15:00,
2013-02-21 00:20:00,19.0,13.9,30.24,WNW,288,6.0,8.0,80,0.00,,---,0.00,VWS V13.01,2013-02-21 05:20:00,
2013-02-21 00:25:00,19.1,14.0,30.24,WSW,257,5.0,8.0,80,0.00,,---,0.00,VWS V13.01,2013-02-21 05:25:00,
2013-02-21 00:30:00,19.2,14.3,30.24,WSW,250,3.0,4.0,81,0.00,,---,0.00,VWS V13.01,2013-02-21 05:30:00,
2013-02-21 00:35:00,19.3,14.4,30.24,West,261,2.0,7.0,81,0.00,,---,0.00,VWS V13.01,2013-02-21 05:35:00,
2013-02-21 00:40:00,19.3,14.7,30.24,West,264,5.0,8.0,82,0.00,,---,0.00,VWS V13.01,2013-02-21 05:40:00,
2013-02-21 00:45:00,19.3,15.0,30.23,WSW,256,5.0,8.0,83,0.00,,---,0.00,VWS V13.01,2013-02-21 05:45:00,
2013-02-21 00:50:00,19.3,15.0,30.24,West,265,3.0,8.0,83,0.00,,---,0.00,VWS V13.01,2013-02-21 05:50:00,
2013-02-21 00:55:00,19.2,15.2,30.24,SW,234,5.0,8.0,84,0.00,,---,0.00,VWS V13.01,2013-02-21 05:55:00,
2013-02-21 01:00:00,19.2,15.2,30.24,WSW,252,0.0,3.0,84,0.00,,---,0.00,VWS V13.01,2013-02-21 06:00:00,
2013-02-21 01:05:00,19.2,15.4,30.23,WNW,283,2.0,5.0,85,0.00,,---,0.00,VWS V13.01,2013-02-21 06:05:00,
2013-02-21 01:10:00,19.3,15.5,30.23,West,274,1.0,5.0,85,0.00,,---,0.00,VWS V13.01,2013-02-21 06:10:00,
2013-02-21 01:15:00,19.3,15.5,30.23,WNW,302,2.0,5.0,85,0.00,,---,0.00,VWS V13.01,2013-02-21 06:15:00,
2013-02-21 01:20:00,19.2,15.4,30.23,NW,317,2.0,6.0,85,0.00,,---,0.00,VWS V13.01,2013-02-21 06:20:00,
2013-02-21 01:25:00,19.2,15.7,30.23,WNW,289,3.0,6.0,86,0.00,,---,0.00,VWS V13.01,2013-02-21 06:25:00,
2013-02-21 01:30:00,19.2,15.7,30.23,WNW,294,1.0,1.0,86,0.00,,---,0.00,VWS V13.01,2013-02-21 06:30:00,
2013-02-21 01:35:00,19.1,15.6,30.24,NW,306,2.0,11.0,86,0.00,,---,0.00,VWS V13.01,2013-02-21 06:35:00,
2013-02-21 01:40:00,19.0,15.5,30.24,West,280,7.0,12.0,86,0.00,,---,0.00,VWS V13.01,2013-02-21 06:40:00,
2013-02-21 01:45:00,19.0,15.5,30.24,WSW,240,1.0,12.0,86,0.00,,---,0.00,VWS V13.01,2013-02-21 06:45:00,
2013-02-21 01:50:00,19.0,15.2,30.24,West,267,5.0,12.0,85,0.00,,---,0.00,VWS V13.01,2013-02-21 06:50:00,
2013-02-21 01:55:00,19.0,15.0,30.24,West,272,2.0,12.0,84,0.00,,---,0.00,VWS V13.01,2013-02-21 06:55:00,
2013-02-21 02:00:00,19.1,14.8,30.24,West,277,5.0,10.0,83,0.00,,---,0.00,VWS V13.01,2013-02-21 07:00:00,
2013-02-21 02:05:00,19.2,14.6,30.24,West,263,6.0,10.0,82,0.00,,---,0.00,VWS V13.01,2013-02-21 07:05:00,
2013-02-21 02:10:00,19.2,14.3,30.24,WSW,244,5.0,11.0,81,0.00,,---,0.00,VWS V13.01,2013-02-21 07:10:00,
2013-02-21 02:15:00,19.3,14.1,30.24,WSW,247,5.0,13.0,80,0.00,,---,0.00,VWS V13.01,2013-02-21 07:15:00,
2013-02-21 02:20:00,19.2,14.3,30.25,WSW,253,5.0,13.0,81,0.00,,---,0.00,VWS V13.01,2013-02-21 07:20:00,
2013-02-21 02:25:00,19.2,14.3,30.25,West,271,4.0,13.0,81,0.00,,---,0.00,VWS V13.01,2013-02-21 07:25:00,
2013-02-21 02:30:00,19.1,14.5,30.25,WSW,252,4.0,7.0,82,0.00,,---,0.00,VWS V13.01,2013-02-21 07:30:00,
2013-02-21 02:35:00,19.2,14.6,30.25,West,259,1.0,7.0,82,0.00,,---,0.00,VWS V13.01,2013-02-21 07:35:00,
2013-02-21 02:40:00,19.2,14.6,30.24,West,280,4.0,7.0,82,0.00,,---,0.00,VWS V13.01,2013-02-21 07:40:00,
2013-02-21 02:45:00,19.2,14.9,30.24,WNW,292,3.0,7.0,83,0.00,,---,0.00,VWS V13.01,2013-02-21 07:45:00,
2013-02-21 02:50:00,19.1,15.1,30.25,West,275,0.0,7.0,84,0.00,,---,0.00,VWS V13.01,2013-02-21 07:50:00,
2013-02-21 02:55:00,19.1,15.3,30.25,WSW,238,3.0,9.0,85,0.00,,---,0.00,VWS V13.01,2013-02-21 07:55:00,
2013-02-21 03:00:00,19.0,15.2,30.25,West,281,3.0,5.0,85,0.00,,---,0.00,VWS V13.01,2013-02-21 08:00:00,
2013-02-21 03:05:00,19.0,15.0,30.25,West,281,0.0,8.0,84,0.00,,---,0.00,VWS V13.01,2013-02-21 08:05:00,
2013-02-21 03:10:00,19.0,15.0,30.25,West,278,3.0,12.0,84,0.00,,---,0.00,VWS V13.01,2013-02-21 08:10:00,
2013-02-21 03:15:00,19.1,15.1,30.24,SW,229,4.0,12.0,84,0.00,,---,0.00,VWS V13.01,2013-02-21 08:15:00,
2013-02-21 03:20:00,19.1,15.1,30.24,WNW,288,1.0,12.0,84,0.00,,---,0.00,VWS V13.01,2013-02-21 08:20:00,
2013-02-21 03:25:00,19.1,15.3,30.25,West,261,2.0,12.0,85,0.00,,---,0.00,VWS V13.01,2013-02-21 08:25:00,
2013-02-21 03:30:00,19.1,15.1,30.25,West,270,9.0,10.0,84,0.00,,---,0.00,VWS V13.01,2013-02-21 08:30:00,
2013-02-21 03:35:00,19.2,14.9,30.25,WSW,247,3.0,11.0,83,0.00,,---,0.00,VWS V13.01,2013-02-21 08:35:00,
2013-02-21 03:40:00,19.1,14.8,30.25,West,259,3.0,12.0,83,0.00,,---,0.00,VWS V13.01,2013-02-21 08:40:00,
2013-02-21 03:45:00,19.1,14.5,30.25,West,281,2.0,13.0,82,0.00,,---,0.00,VWS V13.01,2013-02-21 08:45:00,
2013-02-21 03:50:00,19.2,14.6,30.25,WSW,249,8.0,13.0,82,0.00,,---,0.00,VWS V13.01,2013-02-21 08:50:00,
2013-02-21 03:55:00,19.3,14.7,30.25,WSW,252,3.0,13.0,82,0.00,,---,0.00,VWS V13.01,2013-02-21 08:55:00,
2013-02-21 04:00:00,19.3,14.4,30.25,WSW,253,7.0,11.0,81,0.00,,---,0.00,VWS V13.01,2013-02-21 09:00:00,
2013-02-21 04:05:00,19.4,14.2,30.25,West,274,2.0,12.0,80,0.00,,---,0.00,VWS V13.01,2013-02-21 09:05:00,
2013-02-21 04:10:00,19.4,14.2,30.25,WSW,250,3.0,12.0,80,0.00,,---,0.00,VWS V13.01,2013-02-21 09:10:00,
2013-02-21 04:15:00,19.5,14.1,30.25,SW,236,6.0,12.0,79,0.00,,---,0.00,VWS V13.01,2013-02-21 09:15:00,
2013-02-21 04:20:00,19.5,13.8,30.25,WSW,248,5.0,12.0,78,0.00,,---,0.00,VWS V13.01,2013-02-21 09:20:00,
2013-02-21 04:25:00,19.6,13.9,30.25,South,190,4.0,12.0,78,0.00,,---,0.00,VWS V13.01,2013-02-21 09:25:00,
2013-02-21 04:30:00,19.7,14.0,30.25,West,261,2.0,8.0,78,0.00,,---,0.00,VWS V13.01,2013-02-21 09:30:00,
2013-02-21 04:35:00,19.7,14.0,30.25,West,274,5.0,10.0,78,0.00,,---,0.00,VWS V13.01,2013-02-21 09:35:00,
2013-02-21 04:40:00,19.7,13.7,30.25,SW,236,8.0,10.0,77,0.00,,---,0.00,VWS V13.01,2013-02-21 09:40:00,
2013-02-21 04:45:00,19.8,13.5,30.25,SW,231,6.0,10.0,76,0.00,,---,0.00,VWS V13.01,2013-02-21 09:45:00,
2013-02-21 04:50:00,19.8,13.2,30.25,WNW,282,3.0,12.0,75,0.00,,---,0.00,VWS V13.01,2013-02-21 09:50:00,
2013-02-21 04:55:00,19.8,13.2,30.25,WSW,249,6.0,12.0,75,0.00,,---,0.00,VWS V13.01,2013-02-21 09:55:00,
2013-02-21 05:00:00,19.8,13.2,30.26,WSW,252,5.0,7.0,75,0.00,,---,0.00,VWS V13.01,2013-02-21 10:00:00,
2013-02-21 05:05:00,19.8,13.5,30.26,WSW,246,4.0,10.0,76,0.00,,---,0.00,VWS V13.01,2013-02-21 10:05:00,
2013-02-21 05:10:00,19.8,13.5,30.26,West,261,2.0,10.0,76,0.00,,---,0.00,VWS V13.01,2013-02-21 10:10:00,
2013-02-21 05:15:00,19.8,13.5,30.26,SW,224,4.0,10.0,76,0.00,,---,0.00,VWS V13.01,2013-02-21 10:15:00,
2013-02-21 05:20:00,19.8,13.5,30.26,West,261,7.0,13.0,76,0.00,,---,0.00,VWS V13.01,2013-02-21 10:20:00,
2013-02-21 05:25:00,19.8,13.2,30.27,WSW,250,2.0,13.0,75,0.00,,---,0.00,VWS V13.01,2013-02-21 10:25:00,
2013-02-21 05:30:00,19.9,13.3,30.27,SW,227,1.0,7.0,75,0.00,,---,0.00,VWS V13.01,2013-02-21 10:30:00,
2013-02-21 05:35:00,19.9,13.3,30.27,WSW,245,3.0,10.0,75,0.00,,---,0.00,VWS V13.01,2013-02-21 10:35:00,
2013-02-21 05:40:00,20.0,13.1,30.27,WSW,243,8.0,12.0,74,0.00,,---,0.00,VWS V13.01,2013-02-21 10:40:00,
2013-02-21 05:45:00,20.0,13.4,30.27,SW,235,6.0,12.0,75,0.00,,---,0.00,VWS V13.01,2013-02-21 10:45:00,
2013-02-21 05:50:00,20.1,13.2,30.27,West,260,7.0,12.0,74,0.00,,---,0.00,VWS V13.01,2013-02-21 10:50:00,
2013-02-21 05:55:00,20.2,13.6,30.27,WSW,254,6.0,12.0,75,0.00,,---,0.00,VWS V13.01,2013-02-21 10:55:00,
2013-02-21 06:00:00,20.2,13.2,30.27,WSW,254,5.0,14.0,74,0.00,,---,0.00,VWS V13.01,2013-02-21 11:00:00,
2013-02-21 06:05:00,20.2,13.2,30.27,WSW,252,8.0,14.0,74,0.00,,---,0.00,VWS V13.01,2013-02-21 11:05:00,
2013-02-21 06:10:00,20.2,13.2,30.27,West,268,2.0,14.0,74,0.00,,---,0.00,VWS V13.01,2013-02-21 11:10:00,
2013-02-21 06:16:00,20.2,13.2,30.28,WSW,258,4.0,14.0,74,0.00,,---,0.00,VWS V13.01,2013-02-21 11:16:00,
2013-02-21 06:21:00,20.3,13.4,30.28,WSW,241,2.0,14.0,74,0.00,,---,0.00,VWS V13.01,2013-02-21 11:21:00,
2013-02-21 06:26:00,20.2,13.2,30.28,SW,234,5.0,14.0,74,0.00,,---,0.00,VWS V13.01,2013-02-21 11:26:00,
2013-02-21 06:31:00,20.2,13.2,30.28,WSW,238,7.0,11.0,74,0.00,,---,0.00,VWS V13.01,2013-02-21 11:31:00,
2013-02-21 06:36:00,20.2,13.6,30.28,West,266,5.0,12.0,75,0.00,,---,0.00,VWS V13.01,2013-02-21 11:36:00,
2013-02-21 06:41:00,20.2,13.9,30.28,WSW,246,2.0,12.0,76,0.00,,---,0.00,VWS V13.01,2013-02-21 11:41:00,
2013-02-21 06:46:00,20.2,13.9,30.28,WNW,287,1.0,12.0,76,0.00,,---,0.00,VWS V13.01,2013-02-21 11:46:00,
2013-02-21 06:51:00,20.2,13.9,30.29,WSW,241,8.0,12.0,76,0.00,,---,0.00,VWS V13.01,2013-02-21 11:51:00,
2013-02-21 06:56:00,20.1,14.1,30.29,West,269,5.0,12.0,77,0.00,,---,0.00,VWS V13.01,2013-02-21 11:56:00,
2013-02-21 07:01:00,20.1,14.1,30.29,WSW,239,6.0,10.0,77,0.00,,---,0.00,VWS V13.01,2013-02-21 12:01:00,
2013-02-21 07:06:00,20.0,14.3,30.30,WSW,252,1.0,10.0,78,0.00,,---,0.00,VWS V13.01,2013-02-21 12:06:00,
2013-02-21 07:11:00,20.0,14.6,30.30,West,261,4.0,10.0,79,0.00,,---,0.00,VWS V13.01,2013-02-21 12:11:00,
2013-02-21 07:16:00,19.9,14.4,30.30,WSW,252,2.0,11.0,79,0.00,,---,0.00,VWS V13.01,2013-02-21 12:16:00,
2013-02-21 07:21:00,19.9,14.7,30.30,SW,221,7.0,11.0,80,0.00,,---,0.00,VWS V13.01,2013-02-21 12:21:00,
2013-02-21 07:26:00,19.9,14.7,30.30,West,261,1.0,11.0,80,0.00,,---,0.00,VWS V13.01,2013-02-21 12:26:00,
2013-02-21 07:31:00,20.0,14.8,30.30,WSW,247,5.0,7.0,80,0.00,,---,0.00,VWS V13.01,2013-02-21 12:31:00,
2013-02-21 07:36:00,20.0,14.8,30.30,West,262,5.0,11.0,80,0.00,,---,0.00,VWS V13.01,2013-02-21 12:36:00,
2013-02-21 07:41:00,20.1,15.2,30.30,WSW,248,8.0,11.0,81,0.00,,---,0.00,VWS V13.01,2013-02-21 12:41:00,
2013-02-21 07:46:00,20.1,14.9,30.30,WSW,243,5.0,11.0,80,0.00,,---,0.00,VWS V13.01,2013-02-21 12:46:00,
2013-02-21 07:51:00,20.1,15.2,30.30,West,267,4.0,11.0,81,0.00,,---,0.00,VWS V13.01,2013-02-21 12:51:00,
2013-02-21 07:56:00,20.2,15.3,30.31,WNW,293,4.0,11.0,81,0.00,,---,0.00,VWS V13.01,2013-02-21 12:56:00,
2013-02-21 08:01:00,20.2,15.3,30.31,West,276,2.0,5.0,81,0.00,,---,0.00,VWS V13.01,2013-02-21 13:01:00,
2013-02-21 08:06:00,20.3,15.4,30.32,WSW,242,4.0,11.0,81,0.00,,---,0.00,VWS V13.01,2013-02-21 13:06:00,
2013-02-21 08:11:00,20.3,15.4,30.31,WSW,254,4.0,11.0,81,0.00,,---,0.00,VWS V13.01,2013-02-21 13:11:00,
2013-02-21 08:16:00,20.4,15.5,30.32,WSW,242,6.0,11.0,81,0.00,,---,0.00,VWS V13.01,2013-02-21 13:16:00,
2013-02-21 08:21:00,20.4,15.5,30.32,WSW,244,6.0,11.0,81,0.00,,---,0.00,VWS V13.01,2013-02-21 13:21:00,
2013-02-21 08:26:00,20.6,15.7,30.32,WSW,252,6.0,11.0,81,0.00,,---,0.00,VWS V13.01,2013-02-21 13:26:00,
2013-02-21 08:31:00,20.7,15.8,30.32,WSW,246,4.0,6.0,81,0.00,,---,0.00,VWS V13.01,2013-02-21 13:31:00,
2013-02-21 08:36:00,20.8,15.9,30.33,WSW,250,8.0,9.0,81,0.00,,---,0.00,VWS V13.01,2013-02-21 13:36:00,
2013-02-21 08:41:00,20.9,16.0,30.33,West,280,3.0,10.0,81,0.00,,---,0.00,VWS V13.01,2013-02-21 13:41:00,
2013-02-21 08:46:00,20.9,16.0,30.33,West,273,3.0,10.0,81,0.00,,---,0.00,VWS V13.01,2013-02-21 13:46:00,
2013-02-21 08:51:00,21.0,16.1,30.33,WSW,238,4.0,10.0,81,0.00,,---,0.00,VWS V13.01,2013-02-21 13:51:00,
2013-02-21 08:56:00,21.2,16.3,30.33,West,279,6.0,12.0,81,0.00,,---,0.00,VWS V13.01,2013-02-21 13:56:00,
2013-02-21 09:01:00,21.2,16.3,30.34,WNW,288,10.0,11.0,81,0.00,,---,0.00,VWS V13.01,2013-02-21 14:01:00,
2013-02-21 09:06:00,21.3,15.8,30.34,West,272,4.0,11.0,79,0.00,,---,0.00,VWS V13.01,2013-02-21 14:06:00,
2013-02-21 09:11:00,21.4,16.2,30.34,West,274,4.0,11.0,80,0.00,,---,0.00,VWS V13.01,2013-02-21 14:11:00,
2013-02-21 09:16:00,21.6,16.1,30.34,WNW,285,2.0,11.0,79,0.00,,---,0.00,VWS V13.01,2013-02-21 14:16:00,
2013-02-21 09:21:00,21.9,16.4,30.34,West,275,4.0,11.0,79,0.00,,---,0.00,VWS V13.01,2013-02-21 14:21:00,
2013-02-21 09:26:00,21.9,16.1,30.33,West,272,6.0,15.0,78,0.00,,---,0.00,VWS V13.01,2013-02-21 14:26:00,
2013-02-21 09:31:00,22.0,16.2,30.34,West,266,5.0,8.0,78,0.00,,---,0.00,VWS V13.01,2013-02-21 14:31:00,
2013-02-21 09:36:00,22.3,16.5,30.34,WSW,246,5.0,11.0,78,0.00,,---,0.00,VWS V13.01,2013-02-21 14:36:00,
2013-02-21 09:41:00,22.5,16.1,30.35,West,281,2.0,11.0,76,0.00,,---,0.00,VWS V13.01,2013-02-21 14:41:00,
2013-02-21 09:46:00,22.8,16.4,30.35,West,267,3.0,11.0,76,0.00,,---,0.00,VWS V13.01,2013-02-21 14:46:00,
2013-02-21 09:51:00,23.0,16.6,30.34,WNW,297,7.0,11.0,76,0.00,,---,0.00,VWS V13.01,2013-02-21 14:51:00,
2013-02-21 09:56:00,23.0,16.3,30.35,West,261,3.0,11.0,75,0.00,,---,0.00,VWS V13.01,2013-02-21 14:56:00,
2013-02-21 10:01:00,23.0,16.0,30.35,NW,306,9.0,11.0,74,0.00,,---,0.00,VWS V13.01,2013-02-21 15:01:00,
2013-02-21 10:06:00,23.0,16.0,30.34,WSW,256,3.0,11.0,74,0.00,,---,0.00,VWS V13.01,2013-02-21 15:06:00,
2013-02-21 10:11:00,23.0,16.0,30.35,WNW,286,2.0,13.0,74,0.00,,---,0.00,VWS V13.01,2013-02-21 15:11:00,
2013-02-21 10:16:00,23.3,16.2,30.35,WSW,238,5.0,13.0,74,0.00,,---,0.00,VWS V13.01,2013-02-21 15:16:00,
2013-02-21 10:21:00,23.4,16.0,30.34,West,273,7.0,13.0,73,0.00,,---,0.00,VWS V13.01,2013-02-21 15:21:00,
2013-02-21 10:26:00,23.4,16.0,30.33,WSW,253,5.0,13.0,73,0.00,,---,0.00,VWS V13.01,2013-02-21 15:26:00,
2013-02-21 10:31:00,23.6,15.9,30.33,SW,222,5.0,7.0,72,0.00,,---,0.00,VWS V13.01,2013-02-21 15:31:00,
2013-02-21 10:36:00,23.8,16.1,30.33,West,276,6.0,7.0,72,0.00,,---,0.00,VWS V13.01,2013-02-21 15:36:00,
2013-02-21 10:41:00,23.9,16.2,30.33,West,271,7.0,9.0,72,0.00,,---,0.00,VWS V13.01,2013-02-21 15:41:00,
2013-02-21 10:46:00,23.8,16.4,30.33,NW,326,6.0,11.0,73,0.00,,---,0.00,VWS V13.01,2013-02-21 15:46:00,
2013-02-21 10:51:00,23.7,16.3,30.32,NNW,332,5.0,11.0,73,0.00,,---,0.00,VWS V13.01,2013-02-21 15:51:00,
2013-02-21 10:56:00,23.4,16.0,30.32,NW,305,6.0,13.0,73,0.00,,---,0.00,VWS V13.01,2013-02-21 15:56:00,
2013-02-21 11:01:00,23.2,16.5,30.33,NNW,328,6.0,10.0,75,0.00,,---,0.00,VWS V13.01,2013-02-21 16:01:00,
2013-02-21 11:06:00,23.0,16.9,30.33,NW,324,7.0,10.0,77,0.00,,---,0.00,VWS V13.01,2013-02-21 16:06:00,
2013-02-21 11:11:00,22.5,17.0,30.33,NNW,343,2.0,10.0,79,0.00,,---,0.00,VWS V13.01,2013-02-21 16:11:00,
2013-02-21 11:16:00,22.2,17.0,30.33,NW,309,8.0,10.0,80,0.00,,---,0.00,VWS V13.01,2013-02-21 16:16:00,
2013-02-21 11:21:00,22.2,17.3,30.33,WNW,296,6.0,10.0,81,0.00,,---,0.00,VWS V13.01,2013-02-21 16:21:00,
2013-02-21 11:26:00,22.2,17.0,30.34,NW,308,5.0,10.0,80,0.00,,---,0.00,VWS V13.01,2013-02-21 16:26:00,
2013-02-21 11:31:00,22.4,17.5,30.34,NW,313,4.0,6.0,81,0.00,,---,0.00,VWS V13.01,2013-02-21 16:31:00,
2013-02-21 11:36:00,22.6,17.4,30.34,WNW,295,7.0,9.0,80,0.00,,---,0.00,VWS V13.01,2013-02-21 16:36:00,
2013-02-21 11:41:00,22.7,18.0,30.34,NNW,327,3.0,9.0,82,0.00,,---,0.00,VWS V13.01,2013-02-21 16:41:00,
2013-02-21 11:46:00,23.0,18.3,30.34,NNW,348,3.0,9.0,82,0.00,,---,0.00,VWS V13.01,2013-02-21 16:46:00,
2013-02-21 11:51:00,23.2,18.2,30.35,NW,319,2.0,9.0,81,0.00,,---,0.00,VWS V13.01,2013-02-21 16:51:00,
2013-02-21 11:56:00,23.4,18.4,30.34,WNW,290,5.0,9.0,81,0.00,,---,0.00,VWS V13.01,2013-02-21 16:56:00,
2013-02-21 12:01:00,23.6,18.6,30.34,WNW,301,4.0,7.0,81,0.00,,---,0.00,VWS V13.01,2013-02-21 17:01:00,
2013-02-21 12:06:00,23.6,18.6,30.35,WNW,284,3.0,8.0,81,0.00,,---,0.00,VWS V13.01,2013-02-21 17:06:00,
2013-02-21 12:11:00,23.6,18.6,30.35,NNW,328,3.0,8.0,81,0.00,,---,0.00,VWS V13.01,2013-02-21 17:11:00,
2013-02-21 12:16:00,23.8,18.5,30.34,WSW,246,5.0,10.0,80,0.00,,---,0.00,VWS V13.01,2013-02-21 17:16:00,
2013-02-21 12:21:00,23.9,18.4,30.35,WNW,290,9.0,12.0,79,0.00,,---,0.00,VWS V13.01,2013-02-21 17:21:00,
2013-02-21 12:26:00,23.9,18.0,30.34,WSW,246,5.0,12.0,78,0.00,,---,0.00,VWS V13.01,2013-02-21 17:26:00,
2013-02-21 12:31:00,23.9,17.8,30.35,WSW,249,7.0,12.0,77,0.00,,---,0.00,VWS V13.01,2013-02-21 17:31:00,
2013-02-21 12:36:00,23.9,17.8,30.35,West,267,5.0,13.0,77,0.00,,---,0.00,VWS V13.01,2013-02-21 17:36:00,
2013-02-21 12:41:00,23.9,17.5,30.35,West,261,5.0,13.0,76,0.00,,---,0.00,VWS V13.01,2013-02-21 17:41:00,
2013-02-21 12:46:00,24.1,18.0,30.34,West,267,5.0,13.0,77,0.00,,---,0.00,VWS V13.01,2013-02-21 17:46:00,
2013-02-21 12:51:00,24.2,17.4,30.34,West,265,7.0,13.0,75,0.00,,---,0.00,VWS V13.01,2013-02-21 17:51:00,
2013-02-21 12:56:00,24.2,17.7,30.34,WSW,253,10.0,13.0,76,0.00,,---,0.00,VWS V13.01,2013-02-21 17:56:00,
2013-02-21 13:01:00,24.3,17.8,30.34,NNW,337,7.0,8.0,76,0.00,,---,0.00,VWS V13.01,2013-02-21 18:01:00,
2013-02-21 13:06:00,24.7,18.5,30.33,WNW,286,6.0,12.0,77,0.00,,---,0.00,VWS V13.01,2013-02-21 18:06:00,
2013-02-21 13:11:00,25.3,19.4,30.33,WNW,284,4.0,12.0,78,0.00,,---,0.00,VWS V13.01,2013-02-21 18:11:00,
2013-02-21 13:16:00,25.8,19.3,30.33,West,280,11.0,12.0,76,0.00,,---,0.00,VWS V13.01,2013-02-21 18:16:00,
2013-02-21 13:21:00,26.2,18.1,30.33,NW,304,9.0,15.0,71,0.00,,---,0.00,VWS V13.01,2013-02-21 18:21:00,
2013-02-21 13:26:00,26.9,18.8,30.33,NNW,333,6.0,15.0,71,0.00,,---,0.00,VWS V13.01,2013-02-21 18:26:00,
2013-02-21 13:31:00,27.0,18.2,30.33,West,262,5.0,12.0,69,0.00,,---,0.00,VWS V13.01,2013-02-21 18:31:00,
2013-02-21 13:36:00,27.2,19.1,30.33,WSW,257,5.0,13.0,71,0.00,,---,0.00,VWS V13.01,2013-02-21 18:36:00,
2013-02-21 13:41:00,27.1,18.6,30.33,West,261,3.0,13.0,70,0.00,,---,0.00,VWS V13.01,2013-02-21 18:41:00,
2013-02-21 13:46:00,26.4,18.6,30.34,WNW,287,5.0,14.0,72,0.00,,---,0.00,VWS V13.01,2013-02-21 18:46:00,
2013-02-21 13:51:00,25.5,18.4,30.34,NNW,329,7.0,14.0,74,0.00,,---,0.00,VWS V13.01,2013-02-21 18:51:00,
2013-02-21 13:56:00,25.0,18.2,30.34,NNW,335,8.0,14.0,75,0.00,,---,0.00,VWS V13.01,2013-02-21 18:56:00,
2013-02-21 14:01:00,24.9,18.1,30.34,NNW,342,3.0,13.0,75,0.00,,---,0.00,VWS V13.01,2013-02-21 19:01:00,
2013-02-21 14:06:00,24.7,17.9,30.34,NNW,340,7.0,13.0,75,0.00,,---,0.00,VWS V13.01,2013-02-21 19:06:00,
2013-02-21 14:11:00,24.7,17.9,30.34,NW,306,3.0,13.0,75,0.00,,---,0.00,VWS V13.01,2013-02-21 19:11:00,
2013-02-21 14:16:00,24.9,17.8,30.34,NW,313,5.0,13.0,74,0.00,,---,0.00,VWS V13.01,2013-02-21 19:16:00,
2013-02-21 14:21:00,24.9,17.2,30.34,NNW,329,10.0,13.0,72,0.00,,---,0.00,VWS V13.01,2013-02-21 19:21:00,
2013-02-21 14:26:00,24.7,17.3,30.35,NW,306,3.0,13.0,73,0.00,,---,0.00,VWS V13.01,2013-02-21 19:26:00,
2013-02-21 14:31:00,24.8,17.1,30.35,WNW,296,9.0,9.0,72,0.00,,---,0.00,VWS V13.01,2013-02-21 19:31:00,
2013-02-21 14:36:00,24.8,16.8,30.34,WNW,290,6.0,13.0,71,0.00,,---,0.00,VWS V13.01,2013-02-21 19:36:00,
2013-02-21 14:41:00,25.0,16.6,30.35,WNW,297,5.0,13.0,70,0.00,,---,0.00,VWS V13.01,2013-02-21 19:41:00,
2013-02-21 14:46:00,25.0,16.6,30.35,West,275,6.0,13.0,70,0.00,,---,0.00,VWS V13.01,2013-02-21 19:46:00,
2013-02-21 14:51:00,25.2,16.8,30.35,NNW,332,3.0,13.0,70,0.00,,---,0.00,VWS V13.01,2013-02-21 19:51:00,
2013-02-21 14:56:00,25.6,17.2,30.34,WNW,293,8.0,13.0,70,0.00,,---,0.00,VWS V13.01,2013-02-21 19:56:00,
2013-02-21 15:01:00,25.7,16.6,30.35,North,5,4.0,9.0,68,0.00,,---,0.00,VWS V13.01,2013-02-21 20:01:00,
2013-02-21 15:06:00,25.5,16.1,30.35,NW,313,4.0,10.0,67,0.00,,---,0.00,VWS V13.01,2013-02-21 20:06:00,
2013-02-21 15:11:00,25.4,16.0,30.35,North,350,4.0,10.0,67,0.00,,---,0.00,VWS V13.01,2013-02-21 20:11:00,
2013-02-21 15:16:00,25.2,16.1,30.34,NW,321,5.0,10.0,68,0.00,,---,0.00,VWS V13.01,2013-02-21 20:16:00,
2013-02-21 15:21:00,25.0,15.9,30.34,NW,326,3.0,10.0,68,0.00,,---,0.00,VWS V13.01,2013-02-21 20:21:00,
2013-02-21 15:26:00,24.8,15.8,30.34,NNW,347,7.0,11.0,68,0.00,,---,0.00,VWS V13.01,2013-02-21 20:26:00,
2013-02-21 15:31:00,24.8,15.4,30.34,WNW,286,1.0,6.0,67,0.00,,---,0.00,VWS V13.01,2013-02-21 20:31:00,
2013-02-21 15:36:00,25.0,15.9,30.34,WNW,298,2.0,9.0,68,0.00,,---,0.00,VWS V13.01,2013-02-21 20:36:00,
2013-02-21 15:41:00,25.2,16.1,30.34,WSW,245,2.0,9.0,68,0.00,,---,0.00,VWS V13.01,2013-02-21 20:41:00,
2013-02-21 15:46:00,25.7,15.9,30.34,WNW,299,6.0,9.0,66,0.00,,---,0.00,VWS V13.01,2013-02-21 20:46:00,
2013-02-21 15:51:00,26.4,16.2,30.34,NW,311,2.0,9.0,65,0.00,,---,0.00,VWS V13.01,2013-02-21 20:51:00,
2013-02-21 15:56:00,26.8,16.6,30.33,NNW,343,4.0,9.0,65,0.00,,---,0.00,VWS V13.01,2013-02-21 20:56:00,
2013-02-21 16:01:00,26.5,15.3,30.33,WSW,245,0.0,5.0,62,0.00,,---,0.00,VWS V13.01,2013-02-21 21:01:00,
2013-02-21 16:07:00,26.4,15.9,30.33,NW,314,4.0,8.0,64,0.00,,---,0.00,VWS V13.01,2013-02-21 21:07:00,
2013-02-21 16:12:00,26.2,15.3,30.33,West,277,3.0,8.0,63,0.00,,---,0.00,VWS V13.01,2013-02-21 21:12:00,
2013-02-21 16:17:00,26.0,15.5,30.33,NW,311,2.0,8.0,64,0.00,,---,0.00,VWS V13.01,2013-02-21 21:17:00,
2013-02-21 16:22:00,25.8,15.3,30.34,NW,306,1.0,8.0,64,0.00,,---,0.00,VWS V13.01,2013-02-21 21:22:00,
2013-02-21 16:27:00,25.7,15.6,30.33,NW,318,2.0,8.0,65,0.00,,---,0.00,VWS V13.01,2013-02-21 21:27:00,
2013-02-21 16:32:00,25.7,15.6,30.33,WNW,303,4.0,5.0,65,0.00,,---,0.00,VWS V13.01,2013-02-21 21:32:00,
2013-02-21 16:37:00,26.2,16.1,30.33,NNW,346,3.0,5.0,65,0.00,,---,0.00,VWS V13.01,2013-02-21 21:37:00,
2013-02-21 16:42:00,26.3,15.8,30.34,WNW,295,2.0,6.0,64,0.00,,---,0.00,VWS V13.01,2013-02-21 21:42:00,
2013-02-21 16:47:00,26.2,15.7,30.34,WSW,249,1.0,6.0,64,0.00,,---,0.00,VWS V13.01,2013-02-21 21:47:00,
2013-02-21 16:52:00,26.4,15.9,30.35,NW,304,3.0,9.0,64,0.00,,---,0.00,VWS V13.01,2013-02-21 21:52:00,
2013-02-21 16:57:00,26.7,16.2,30.35,NW,316,3.0,9.0,64,0.00,,---,0.00,VWS V13.01,2013-02-21 21:57:00,
2013-02-21 17:02:00,26.7,16.2,30.36,West,275,1.0,6.0,64,0.00,,---,0.00,VWS V13.01,2013-02-21 22:02:00,
2013-02-21 17:07:00,26.7,15.8,30.36,WNW,290,3.0,6.0,63,0.00,,---,0.00,VWS V13.01,2013-02-21 22:07:00,
2013-02-21 17:12:00,26.8,15.5,30.35,WNW,299,3.0,7.0,62,0.00,,---,0.00,VWS V13.01,2013-02-21 22:12:00,
2013-02-21 17:17:00,26.7,15.1,30.35,WNW,282,3.0,7.0,61,0.00,,---,0.00,VWS V13.01,2013-02-21 22:17:00,
2013-02-21 17:22:00,26.5,14.9,30.35,West,276,3.0,7.0,61,0.00,,---,0.00,VWS V13.01,2013-02-21 22:22:00,
2013-02-21 17:27:00,26.1,14.9,30.36,SW,232,4.0,7.0,62,0.00,,---,0.00,VWS V13.01,2013-02-21 22:27:00,
2013-02-21 17:32:00,25.7,14.9,30.37,WNW,300,1.0,5.0,63,0.00,,---,0.00,VWS V13.01,2013-02-21 22:32:00,
2013-02-21 17:37:00,25.4,14.9,30.37,WNW,301,1.0,6.0,64,0.00,,---,0.00,VWS V13.01,2013-02-21 22:37:00,
2013-02-21 17:42:00,25.1,15.0,30.37,WNW,293,4.0,6.0,65,0.00,,---,0.00,VWS V13.01,2013-02-21 22:42:00,
2013-02-21 17:47:00,24.7,14.6,30.37,West,265,3.0,6.0,65,0.00,,---,0.00,VWS V13.01,2013-02-21 22:47:00,
2013-02-21 17:52:00,24.4,14.7,30.38,WNW,288,1.0,6.0,66,0.00,,---,0.00,VWS V13.01,2013-02-21 22:52:00,
2013-02-21 17:57:00,24.2,14.8,30.38,WSW,258,2.0,7.0,67,0.00,,---,0.00,VWS V13.01,2013-02-21 22:57:00,
2013-02-21 18:02:00,24.0,14.6,30.38,West,267,1.0,4.0,67,0.00,,---,0.00,VWS V13.01,2013-02-21 23:02:00,
2013-02-21 18:07:00,23.8,14.8,30.39,West,261,2.0,5.0,68,0.00,,---,0.00,VWS V13.01,2013-02-21 23:07:00,
2013-02-21 18:12:00,23.7,14.7,30.39,WSW,250,1.0,5.0,68,0.00,,---,0.00,VWS V13.01,2013-02-21 23:12:00,
2013-02-21 18:17:00,23.6,14.6,30.39,WSW,250,1.0,5.0,68,0.00,,---,0.00,VWS V13.01,2013-02-21 23:17:00,
2013-02-21 18:22:00,23.5,14.5,30.40,West,269,1.0,5.0,68,0.00,,---,0.00,VWS V13.01,2013-02-21 23:22:00,
2013-02-21 18:27:00,23.3,14.3,30.40,West,280,1.0,5.0,68,0.00,,---,0.00,VWS V13.01,2013-02-21 23:27:00,
2013-02-21 18:32:00,23.3,14.6,30.40,West,279,0.0,3.0,69,0.00,,---,0.00,VWS V13.01,2013-02-21 23:32:00,
2013-02-21 18:37:00,23.2,14.6,30.40,NW,304,0.0,4.0,69,0.00,,---,0.00,VWS V13.01,2013-02-21 23:37:00,
2013-02-21 18:42:00,23.1,14.5,30.40,NW,304,0.0,4.0,69,0.00,,---,0.00,VWS V13.01,2013-02-21 23:42:00,
2013-02-21 18:47:00,23.0,14.7,30.40,NW,304,1.0,4.0,70,0.00,,---,0.00,VWS V13.01,2013-02-21 23:47:00,
2013-02-21 18:52:00,22.9,14.6,30.40,NW,304,0.0,4.0,70,0.00,,---,0.00,VWS V13.01,2013-02-21 23:52:00,
2013-02-21 18:57:00,22.8,14.5,30.40,NW,304,0.0,4.0,70,0.00,,---,0.00,VWS V13.01,2013-02-21 23:57:00,
2013-02-21 19:02:00,22.7,14.4,30.41,NW,304,0.0,1.0,70,0.00,,---,0.00,VWS V13.01,2013-02-22 00:02:00,
2013-02-21 19:07:00,22.5,14.5,30.40,NW,305,1.0,2.0,71,0.00,,---,0.00,VWS V13.01,2013-02-22 00:07:00,
2013-02-21 19:12:00,22.2,14.6,30.40,NW,312,0.0,2.0,72,0.00,,---,0.00,VWS V13.01,2013-02-22 00:12:00,
2013-02-21 19:17:00,22.0,14.4,30.40,NW,316,1.0,2.0,72,0.00,,---,0.00,VWS V13.01,2013-02-22 00:17:00,
2013-02-21 19:22:00,21.9,14.3,30.40,NW,316,0.0,3.0,72,0.00,,---,0.00,VWS V13.01,2013-02-22 00:22:00,
2013-02-21 19:27:00,21.7,14.1,30.40,NW,316,1.0,3.0,72,0.00,,---,0.00,VWS V13.01,2013-02-22 00:27:00,
2013-02-21 19:32:00,21.6,14.3,30.40,NNW,343,3.0,4.0,73,0.00,,---,0.00,VWS V13.01,2013-02-22 00:32:00,
2013-02-21 19:37:00,21.5,14.2,30.40,North,355,1.0,4.0,73,0.00,,---,0.00,VWS V13.01,2013-02-22 00:37:00,
2013-02-21 19:42:00,21.4,14.1,30.39,North,355,2.0,4.0,73,0.00,,---,0.00,VWS V13.01,2013-02-22 00:42:00,
2013-02-21 19:47:00,21.3,14.3,30.40,North,360,1.0,4.0,74,0.00,,---,0.00,VWS V13.01,2013-02-22 00:47:00,
2013-02-21 19:52:00,21.3,14.3,30.40,North,360,1.0,4.0,74,0.00,,---,0.00,VWS V13.01,2013-02-22 00:52:00,
2013-02-21 19:57:00,21.2,14.5,30.40,North,360,2.0,4.0,75,0.00,,---,0.00,VWS V13.01,2013-02-22 00:57:00,
2013-02-21 20:02:00,21.1,14.4,30.40,NNE,15,0.0,2.0,75,0.00,,---,0.00,VWS V13.01,2013-02-22 01:02:00,
2013-02-21 20:07:00,20.9,14.2,30.41,NNE,15,0.0,2.0,75,0.00,,---,0.00,VWS V13.01,2013-02-22 01:07:00,
2013-02-21 20:12:00,20.7,14.0,30.41,NNE,15,0.0,2.0,75,0.00,,---,0.00,VWS V13.01,2013-02-22 01:12:00,
2013-02-21 20:17:00,20.5,13.9,30.41,NNE,15,0.0,2.0,75,0.00,,---,0.00,VWS V13.01,2013-02-22 01:17:00,
2013-02-21 20:22:00,20.4,14.1,30.41,NNE,15,0.0,2.0,76,0.00,,---,0.00,VWS V13.01,2013-02-22 01:22:00,
2013-02-21 20:27:00,20.2,14.2,30.41,NNE,15,0.0,2.0,77,0.00,,---,0.00,VWS V13.01,2013-02-22 01:27:00,
2013-02-21 20:32:00,20.0,14.0,30.41,NNE,15,0.0,0.0,77,0.00,,---,0.00,VWS V13.01,2013-02-22 01:32:00,
2013-02-21 20:37:00,19.8,14.1,30.40,NNE,15,0.0,0.0,78,0.00,,---,0.00,VWS V13.01,2013-02-22 01:37:00,
2013-02-21 20:42:00,19.6,14.2,30.41,NNE,15,0.0,1.0,79,0.00,,---,0.00,VWS V13.01,2013-02-22 01:42:00,
2013-02-21 20:47:00,19.5,14.1,30.41,NNE,15,0.0,1.0,79,0.00,,---,0.00,VWS V13.01,2013-02-22 01:47:00,
2013-02-21 20:52:00,19.3,13.9,30.41,NNE,15,0.0,1.0,79,0.00,,---,0.00,VWS V13.01,2013-02-22 01:52:00,
2013-02-21 20:57:00,19.2,14.1,30.40,NNE,15,0.0,1.0,80,0.00,,---,0.00,VWS V13.01,2013-02-22 01:57:00,
2013-02-21 21:02:00,19.1,14.0,30.40,NNE,15,0.0,1.0,80,0.00,,---,0.00,VWS V13.01,2013-02-22 02:02:00,
2013-02-21 21:07:00,19.0,13.9,30.40,NNE,15,0.0,1.0,80,0.00,,---,0.00,VWS V13.01,2013-02-22 02:07:00,
2013-02-21 21:12:00,18.9,13.8,30.39,NNE,15,0.0,2.0,80,0.00,,---,0.00,VWS V13.01,2013-02-22 02:12:00,
2013-02-21 21:17:00,18.9,13.8,30.39,NNE,15,1.0,3.0,80,0.00,,---,0.00,VWS V13.01,2013-02-22 02:17:00,
2013-02-21 21:22:00,18.9,14.0,30.38,ENE,62,1.0,4.0,81,0.00,,---,0.00,VWS V13.01,2013-02-22 02:22:00,
2013-02-21 21:27:00,18.8,13.7,30.38,NE,49,2.0,7.0,80,0.00,,---,0.00,VWS V13.01,2013-02-22 02:27:00,
2013-02-21 21:32:00,18.6,13.5,30.38,NE,53,2.0,5.0,80,0.00,,---,0.00,VWS V13.01,2013-02-22 02:32:00,
2013-02-21 21:37:00,18.5,13.4,30.38,ENE,59,4.0,5.0,80,0.00,,---,0.00,VWS V13.01,2013-02-22 02:37:00,
2013-02-21 21:42:00,18.4,13.6,30.37,ENE,63,4.0,5.0,81,0.00,,---,0.00,VWS V13.01,2013-02-22 02:42:00,
2013-02-21 21:47:00,18.4,13.6,30.36,NE,46,3.0,7.0,81,0.00,,---,0.00,VWS V13.01,2013-02-22 02:47:00,
2013-02-21 21:52:00,18.4,13.6,30.36,NE,43,3.0,7.0,81,0.00,,---,0.00,VWS V13.01,2013-02-22 02:52:00,
2013-02-21 21:57:00,18.5,13.6,30.36,NE,51,3.0,7.0,81,0.00,,---,0.00,VWS V13.01,2013-02-22 02:57:00,
2013-02-21 22:02:00,18.5,13.6,30.36,NE,36,2.0,4.0,81,0.00,,---,0.00,VWS V13.01,2013-02-22 03:02:00,
2013-02-21 22:07:00,18.5,13.6,30.36,NE,39,2.0,4.0,81,0.00,,---,0.00,VWS V13.01,2013-02-22 03:07:00,
2013-02-21 22:12:00,18.5,13.6,30.36,NE,46,2.0,4.0,81,0.00,,---,0.00,VWS V13.01,2013-02-22 03:12:00,
2013-02-21 22:17:00,18.4,13.6,30.36,NE,46,0.0,4.0,81,0.00,,---,0.00,VWS V13.01,2013-02-22 03:17:00,
2013-02-21 22:22:00,18.4,13.6,30.35,NE,43,2.0,4.0,81,0.00,,---,0.00,VWS V13.01,2013-02-22 03:22:00,
2013-02-21 22:27:00,18.3,13.5,30.35,NE,43,0.0,4.0,81,0.00,,---,0.00,VWS V13.01,2013-02-22 03:27:00,
2013-02-21 22:32:00,18.4,13.6,30.35,NE,35,1.0,3.0,81,0.00,,---,0.00,VWS V13.01,2013-02-22 03:32:00,
2013-02-21 22:37:00,18.4,13.6,30.35,NE,35,2.0,4.0,81,0.00,,---,0.00,VWS V13.01,2013-02-22 03:37:00,
2013-02-21 22:42:00,18.4,13.6,30.35,NNE,30,1.0,4.0,81,0.00,,---,0.00,VWS V13.01,2013-02-22 03:42:00,
2013-02-21 22:47:00,18.4,13.6,30.35,NNE,30,2.0,4.0,81,0.00,,---,0.00,VWS V13.01,2013-02-22 03:47:00,
2013-02-21 22:52:00,18.4,13.6,30.35,NNE,30,0.0,4.0,81,0.00,,---,0.00,VWS V13.01,2013-02-22 03:52:00,
2013-02-21 22:57:00,18.4,13.6,30.36,NNE,30,0.0,4.0,81,0.00,,---,0.00,VWS V13.01,2013-02-22 03:57:00,
2013-02-21 23:02:00,18.3,13.5,30.35,NNE,30,0.0,1.0,81,0.00,,---,0.00,VWS V13.01,2013-02-22 04:02:00,
2013-02-21 23:07:00,18.3,13.5,30.34,NNE,30,1.0,2.0,81,0.00,,---,0.00,VWS V13.01,2013-02-22 04:07:00,
2013-02-21 23:12:00,18.3,13.7,30.34,NE,40,3.0,4.0,82,0.00,,---,0.00,VWS V13.01,2013-02-22 04:12:00,
2013-02-21 23:17:00,18.4,13.8,30.33,NE,49,1.0,4.0,82,0.00,,---,0.00,VWS V13.01,2013-02-22 04:17:00,
2013-02-21 23:22:00,18.5,13.9,30.33,NNE,22,2.0,5.0,82,0.00,,---,0.00,VWS V13.01,2013-02-22 04:22:00,
2013-02-21 23:27:00,18.5,13.9,30.32,NE,35,2.0,5.0,82,0.00,,---,0.00,VWS V13.01,2013-02-22 04:27:00,
2013-02-21 23:32:00,18.7,14.1,30.32,NE,50,3.0,4.0,82,0.00,,---,0.00,VWS V13.01,2013-02-22 04:32:00,
2013-02-21 23:37:00,18.8,13.9,30.31,ENE,57,1.0,5.0,81,0.00,,---,0.00,VWS V13.01,2013-02-22 04:37:00,
2013-02-21 23:42:00,18.8,13.9,30.31,NE,50,0.0,5.0,81,0.00,,---,0.00,VWS V13.01,2013-02-22 04:42:00,
2013-02-21 23:47:00,18.9,14.0,30.31,NE,50,0.0,5.0,81,0.00,,---,0.00,VWS V13.01,2013-02-22 04:47:00,
2013-02-21 23:52:00,18.9,14.0,30.32,NE,50,0.0,5.0,81,0.00,,---,0.00,VWS V13.01,2013-02-22 04:52:00,
2013-02-21 23:57:00,19.0,14.1,30.32,NE,50,0.0,5.0,81,0.00,,---,0.00,VWS V13.01,2013-02-22 04:57:00,